This is the latest recevied weather packets stored in our database for station/object K5UBE. If no packets are shown the sender has not sent any weather packets the latest 10 day(s).
| Time | Temp. | Humidity | Pressure | Rain* | Wind** | Luminosity | Snow |
|---|---|---|---|---|---|---|---|
| 1777691637 | 7.22° C | 81% | 1025 hPa | 0 mm | - | - | - |
| 1777691335 | 7.22° C | 81% | 1024.8 hPa | 0 mm | - | - | - |
| 1777691033 | 6.67° C | 81% | 1024.6 hPa | 0 mm | - | - | - |
| 1777690730 | 7.22° C | 80% | 1024.5 hPa | 0 mm | - | - | - |
| 1777690427 | 7.22° C | 80% | 1024.4 hPa | 0 mm | - | - | - |
| 1777690125 | 7.22° C | 79% | 1024.4 hPa | 0 mm | - | - | - |
| 1777689823 | 7.78° C | 77% | 1024.3 hPa | 0 mm | - | - | - |
| 1777689520 | 8.33° C | 76% | 1024.2 hPa | 0 mm | - | - | - |
| 1777689218 | 8.89° C | 74% | 1024.1 hPa | 0 mm | - | - | - |
| 1777688916 | 8.89° C | 74% | 1023.9 hPa | 0 mm | - | - | - |
| 1777688612 | 8.33° C | 75% | 1023.9 hPa | 0 mm | - | - | - |
| 1777688309 | 8.89° C | 74% | 1023.7 hPa | 0 mm | - | - | - |
| 1777688006 | 8.89° C | 74% | 1023.6 hPa | 0 mm | - | - | - |
| 1777687704 | 8.89° C | 73% | 1023.4 hPa | 0 mm | - | - | - |
| 1777687401 | 8.89° C | 73% | 1023.5 hPa | 0 mm | - | - | - |
| 1777687098 | 9.44° C | 73% | 1023.6 hPa | 0 mm | - | - | - |
| 1777686795 | 9.44° C | 72% | 1023.4 hPa | 0 mm | - | - | - |
| 1777686492 | 9.44° C | 71% | 1023.4 hPa | 0 mm | - | - | - |
| 1777686189 | 9.44° C | 71% | 1023.3 hPa | 0 mm | - | - | - |
| 1777685885 | 9.44° C | 71% | 1023.2 hPa | 0 mm | - | - | - |
| 1777685580 | 10° C | 70% | 1023.3 hPa | 0 mm | - | - | - |
| 1777685277 | 10° C | 70% | 1023.3 hPa | 0 mm | - | - | - |
| 1777684975 | 10° C | 69% | 1023.3 hPa | 0 mm | - | - | - |
| 1777684672 | 10.56° C | 68% | 1023.3 hPa | 0 mm | - | - | - |
| 1777684368 | 10.56° C | 67% | 1023.1 hPa | 0 mm | - | - | - |
* Rain latest hour (hover to see other rain measurements)
** Current wind speed in m/s (hover to see current wind gust speed)